TimeCDT,TemperatureF,Dew PointF,Humidity,Sea Level PressureIn,VisibilityMPH,Wind Direction,Wind SpeedMPH,Gust SpeedMPH,PrecipitationIn,Events,Conditions,WindDirDegrees,DateUTC
12:15 AM,32.9,26.6,78,30.32,10.0,East,3.5,-,N/A,,Clear,100,2013-03-28 05:15:00
12:35 AM,33.1,26.6,77,30.31,10.0,East,4.6,-,N/A,,Clear,100,2013-03-28 05:35:00
12:55 AM,32.7,27.0,79,30.32,10.0,ESE,4.6,-,N/A,,Clear,110,2013-03-28 05:55:00
1:15 AM,32.0,27.0,82,30.32,10.0,ESE,4.6,-,N/A,,Clear,110,2013-03-28 06:15:00
1:35 AM,32.0,27.3,83,30.32,10.0,ESE,4.6,-,N/A,,Clear,110,2013-03-28 06:35:00
1:55 AM,32.0,27.0,82,30.33,10.0,ESE,4.6,-,N/A,,Clear,110,2013-03-28 06:55:00
2:15 AM,31.6,26.6,82,30.32,10.0,ESE,4.6,-,N/A,,Clear,110,2013-03-28 07:15:00
2:35 AM,31.1,26.6,83,30.32,10.0,East,3.5,-,N/A,,Clear,100,2013-03-28 07:35:00
2:55 AM,31.5,26.8,83,30.32,10.0,ESE,4.6,-,N/A,,Clear,110,2013-03-28 07:55:00
3:15 AM,31.5,26.8,83,30.32,10.0,ESE,4.6,-,N/A,,Clear,120,2013-03-28 08:15:00
3:35 AM,30.9,26.6,84,30.31,10.0,ESE,4.6,-,N/A,,Clear,120,2013-03-28 08:35:00
3:55 AM,30.2,26.6,86,30.31,10.0,ESE,4.6,-,N/A,,Clear,110,2013-03-28 08:55:00
4:15 AM,29.8,26.6,88,30.31,10.0,East,3.5,-,N/A,,Clear,100,2013-03-28 09:15:00
4:35 AM,30.2,27.0,88,30.31,10.0,ESE,4.6,-,N/A,,Clear,110,2013-03-28 09:35:00
4:55 AM,30.4,26.6,86,30.31,10.0,East,4.6,-,N/A,,Clear,100,2013-03-28 09:55:00
5:15 AM,30.9,27.0,85,30.31,10.0,ESE,5.8,-,N/A,,Clear,110,2013-03-28 10:15:00
5:35 AM,30.2,26.4,86,30.31,10.0,ESE,5.8,-,N/A,,Clear,110,2013-03-28 10:35:00
5:55 AM,29.5,25.7,86,30.31,10.0,ESE,5.8,-,N/A,,Clear,110,2013-03-28 10:55:00
6:15 AM,29.5,26.2,88,30.31,10.0,ESE,3.5,-,N/A,,Clear,110,2013-03-28 11:15:00
6:35 AM,28.6,25.7,89,30.32,10.0,ESE,3.5,-,N/A,,Clear,120,2013-03-28 11:35:00
6:55 AM,28.8,26.2,90,30.31,10.0,ESE,4.6,-,N/A,,Clear,110,2013-03-28 11:55:00
7:15 AM,29.5,26.8,90,30.31,10.0,ESE,5.8,-,N/A,,Clear,120,2013-03-28 12:15:00
7:35 AM,30.4,26.4,85,30.32,10.0,ESE,4.6,-,N/A,,Clear,110,2013-03-28 12:35:00
7:55 AM,31.6,27.0,83,30.33,10.0,ESE,5.8,-,N/A,,Clear,120,2013-03-28 12:55:00
8:15 AM,32.4,27.1,81,30.33,10.0,ESE,4.6,-,N/A,,Clear,120,2013-03-28 13:15:00
8:35 AM,34.2,27.5,77,30.33,10.0,ESE,5.8,-,N/A,,Clear,120,2013-03-28 13:35:00
8:55 AM,36.0,28.4,74,30.33,10.0,ESE,8.1,-,N/A,,Clear,110,2013-03-28 13:55:00
9:15 AM,37.8,28.4,69,30.33,10.0,SE,10.4,-,N/A,,Clear,130,2013-03-28 14:15:00
9:35 AM,39.4,28.2,64,30.32,10.0,ESE,9.2,-,N/A,,Clear,120,2013-03-28 14:35:00
9:55 AM,40.8,27.9,60,30.33,10.0,ESE,11.5,-,N/A,,Clear,120,2013-03-28 14:55:00
10:15 AM,42.1,27.9,57,30.33,10.0,ESE,13.8,-,N/A,,Clear,120,2013-03-28 15:15:00
10:35 AM,43.2,27.9,55,30.33,10.0,SE,15.0,18.4,N/A,,Clear,130,2013-03-28 15:35:00
10:55 AM,44.2,28.6,54,30.33,10.0,ESE,13.8,-,N/A,,Clear,120,2013-03-28 15:55:00
11:15 AM,45.5,29.8,54,30.33,10.0,ESE,13.8,19.6,N/A,,Clear,120,2013-03-28 16:15:00
11:35 AM,46.9,31.5,55,30.32,10.0,ESE,15.0,-,N/A,,Clear,110,2013-03-28 16:35:00
11:55 AM,47.3,31.5,54,30.32,10.0,SE,11.5,18.4,N/A,,Clear,130,2013-03-28 16:55:00
12:15 PM,48.6,31.1,51,30.31,10.0,ESE,9.2,-,N/A,,Clear,110,2013-03-28 17:15:00
12:35 PM,49.1,30.4,49,30.31,10.0,ESE,10.4,-,N/A,,Clear,110,2013-03-28 17:35:00
12:55 PM,50.0,31.6,49,30.31,10.0,ESE,11.5,-,N/A,,Clear,120,2013-03-28 17:55:00
1:15 PM,50.9,31.5,47,30.30,10.0,ESE,10.4,-,N/A,,Clear,110,2013-03-28 18:15:00
1:35 PM,51.6,32.7,49,30.29,10.0,ESE,11.5,-,N/A,,Clear,120,2013-03-28 18:35:00
1:55 PM,52.2,33.3,49,30.29,10.0,SE,9.2,-,N/A,,Clear,130,2013-03-28 18:55:00
2:15 PM,52.9,34.0,49,30.27,10.0,SE,13.8,18.4,N/A,,Clear,130,2013-03-28 19:15:00
2:35 PM,53.4,34.2,48,30.26,10.0,ESE,10.4,18.4,N/A,,Clear,120,2013-03-28 19:35:00
2:55 PM,54.9,34.5,46,30.25,10.0,ESE,9.2,-,N/A,,Clear,110,2013-03-28 19:55:00
3:15 PM,54.3,33.1,45,30.25,10.0,East,10.4,-,N/A,,Clear,100,2013-03-28 20:15:00
3:35 PM,54.7,34.0,46,30.24,10.0,ESE,9.2,17.3,N/A,,Clear,120,2013-03-28 20:35:00
3:55 PM,54.9,33.4,44,30.23,10.0,SE,9.2,-,N/A,,Clear,140,2013-03-28 20:55:00
4:15 PM,55.6,34.0,44,30.23,10.0,East,9.2,16.1,N/A,,Clear,100,2013-03-28 21:15:00
4:35 PM,55.4,32.9,43,30.23,10.0,ESE,9.2,-,N/A,,Clear,110,2013-03-28 21:35:00
4:55 PM,55.4,33.3,43,30.23,10.0,ESE,8.1,-,N/A,,Clear,110,2013-03-28 21:55:00
5:15 PM,54.5,32.4,43,30.23,10.0,East,6.9,-,N/A,,Clear,100,2013-03-28 22:15:00
5:35 PM,54.7,32.5,43,30.23,10.0,East,5.8,-,N/A,,Clear,90,2013-03-28 22:35:00
5:55 PM,54.0,32.2,44,30.23,10.0,East,6.9,-,N/A,,Clear,90,2013-03-28 22:55:00
6:15 PM,53.6,32.2,44,30.23,10.0,East,6.9,-,N/A,,Clear,100,2013-03-28 23:15:00
6:35 PM,52.9,33.1,47,30.23,10.0,ESE,6.9,-,N/A,,Clear,110,2013-03-28 23:35:00
6:55 PM,52.0,33.1,49,30.24,10.0,East,5.8,-,N/A,,Clear,100,2013-03-28 23:55:00
7:15 PM,50.9,33.8,52,30.24,10.0,East,5.8,-,N/A,,Clear,100,2013-03-29 00:15:00
7:35 PM,50.0,33.3,53,30.24,10.0,ESE,5.8,-,N/A,,Clear,110,2013-03-29 00:35:00
7:55 PM,48.4,32.9,55,30.24,10.0,East,5.8,-,N/A,,Clear,100,2013-03-29 00:55:00
8:15 PM,47.3,32.9,57,30.24,10.0,ESE,5.8,-,N/A,,Clear,110,2013-03-29 01:15:00
8:35 PM,46.4,32.9,59,30.25,10.0,ESE,5.8,-,N/A,,Clear,110,2013-03-29 01:35:00
8:55 PM,45.0,32.5,62,30.25,10.0,ESE,4.6,-,N/A,,Clear,110,2013-03-29 01:55:00
9:15 PM,44.1,32.5,64,30.26,10.0,Calm,Calm,-,N/A,,Clear,0,2013-03-29 02:15:00
9:35 PM,43.9,32.0,63,30.26,10.0,East,4.6,-,N/A,,Clear,80,2013-03-29 02:35:00
9:55 PM,43.7,32.4,64,30.27,10.0,East,3.5,-,N/A,,Clear,90,2013-03-29 02:55:00
10:15 PM,42.8,32.4,67,30.27,10.0,East,3.5,-,N/A,,Clear,90,2013-03-29 03:15:00
10:35 PM,42.3,32.5,68,30.27,10.0,East,3.5,-,N/A,,Clear,100,2013-03-29 03:35:00
10:55 PM,41.7,32.4,69,30.27,10.0,ESE,3.5,-,N/A,,Clear,110,2013-03-29 03:55:00
11:15 PM,40.5,32.2,72,30.27,10.0,ESE,5.8,-,N/A,,Clear,120,2013-03-29 04:15:00
11:35 PM,39.2,32.0,75,30.27,10.0,ESE,4.6,-,N/A,,Clear,110,2013-03-29 04:35:00
11:55 PM,38.1,32.0,79,30.27,10.0,ESE,4.6,-,N/A,,Clear,120,2013-03-29 04:55:00